Flag for U.S.A. Weather past 2 weeks in Bowling Green, Kentucky, U.S.A.

49 °F


Feels Like: 46 °F
Forecast: 38 / 62 °F
Wind: 8 mph from South

Location: Glasgow Municipal Airport

Current Time: Nov 25, 2015 at 9:20:50 AM

Latest Report: Nov 25, 2015 at 8:55 AM

Visibility: 10 mi

Pressure: 30.44 "Hg

Humidity: 51%

Dew point: 31 °F

Location of Bowling GreenLocation

Historic Weather in Bowling Green — Graph


Bowling Green temperature yesterday

Maximum temperature yesterday: 58 °F (at 1:15 PM)
Minimum temperature yesterday: 27 °F (at 3:35 AM)
Average temperature yesterday: 42 °F

Past Weeks' High & Low Weather Summary

High70 °F (Nov 11, 2:15 PM)100% (Nov 10, 9:35 PM)30.46 "Hg (Nov 10, 9:35 PM)
Low20 °F (Nov 23, 2:55 AM)18% (Nov 13, 12:35 PM)29.67 "Hg (Nov 18, 1:55 PM)
Average47 °F68%30.16 "Hg
* Reported Nov 10 8:15 AM — Nov 25 8:15 AM, Bowling Green, Weather by CustomWeather, © 2015

Note: Actual official high and low records may vary slightly from our data, if they occured in-between our weather recording intervals... More about our weather records


Bowling Green weather history for previous 24 hours

Time TempWeatherWind HumidityBarometerVisibility
8:15 AM
Wed, Nov 25
46 °FSunny.5 mph55%30.44 "Hg10 mi
7:55 AM45 °FSunny.3 mph59%30.44 "Hg10 mi
7:35 AM43 °FSunny.3 mph65%30.44 "Hg10 mi
7:15 AM43 °FSunny.No wind61%30.44 "Hg10 mi
6:55 AM42 °FSunny.No wind61%30.43 "Hg10 mi
6:35 AM42 °FSunny.No wind60%30.43 "Hg10 mi
6:15 AM42 °FSunny.No wind61%30.42 "Hg10 mi
5:55 AM41 °FSunny.No wind64%30.41 "Hg10 mi
5:35 AM41 °FSunny.No wind63%30.41 "Hg10 mi
5:15 AM43 °FClear.3 mph57%30.41 "Hg10 mi
4:55 AM44 °FClear.No wind55%30.41 "Hg10 mi
4:35 AM43 °FClear.No wind57%30.40 "Hg10 mi
4:15 AM43 °FPassing clouds.No wind59%30.40 "Hg10 mi
3:55 AM42 °FPassing clouds.No wind61%30.39 "Hg10 mi
3:35 AM44 °FClear.No wind55%30.38 "Hg10 mi
3:15 AM42 °FClear.3 mph60%30.38 "Hg10 mi
2:55 AM38 °FClear.No wind72%30.38 "Hg10 mi
2:35 AM37 °FClear.No wind76%30.38 "Hg10 mi
2:15 AM39 °FClear.No wind71%30.38 "Hg10 mi
1:55 AM40 °FClear.No wind68%30.37 "Hg10 mi
1:15 AM40 °FClear.No wind71%30.37 "Hg10 mi
12:55 AM36 °FClear.No wind84%30.37 "Hg10 mi
12:15 AM37 °FClear.No wind82%30.36 "Hg10 mi
11:55 PM
Tue, Nov 24
36 °FClear.No wind84%30.36 "Hg10 mi
11:35 PM36 °FClear.No wind83%30.36 "Hg10 mi
11:15 PM35 °FClear.No wind87%30.35 "Hg10 mi
10:55 PM39 °FClear.No wind74%30.36 "Hg10 mi
10:15 PM37 °FClear.No wind83%30.35 "Hg10 mi
9:35 PM36 °FClear.No wind84%30.36 "Hg10 mi
9:15 PM36 °FClear.No wind84%30.36 "Hg10 mi
8:55 PM38 °FClear.No wind80%30.36 "Hg10 mi
8:35 PM38 °FClear.No wind79%30.36 "Hg10 mi
8:15 PM39 °FClear.3 mph76%30.35 "Hg10 mi
7:55 PM40 °FClear.No wind75%30.36 "Hg10 mi
7:15 PM40 °FClear.3 mph72%30.35 "Hg10 mi
6:35 PM42 °FClear.3 mph69%30.35 "Hg10 mi
6:15 PM43 °FClear.No wind64%30.35 "Hg10 mi
5:55 PM44 °FClear.No wind64%30.34 "Hg10 mi
5:35 PM45 °FClear.No wind59%30.34 "Hg10 mi
5:15 PM47 °FClear.No wind56%30.34 "Hg10 mi
4:55 PM49 °FClear.No wind52%30.33 "Hg10 mi
4:15 PM54 °FClear.No wind40%30.33 "Hg10 mi
3:55 PM56 °FDense fog.No wind35%30.33 "Hg1 mi
3:35 PM56 °FClear.No wind35%30.33 "Hg5 mi
3:15 PM57 °FSunny.5 mph35%30.32 "Hg7 mi
2:55 PM58 °FSunny.6 mph35%30.32 "Hg10 mi
2:35 PM58 °FSunny.5 mph37%30.32 "Hg10 mi
2:15 PM58 °FSunny.6 mph38%30.33 "Hg10 mi
1:55 PM57 °FSunny.5 mph37%30.33 "Hg10 mi
1:35 PM58 °FSunny.7 mph37%30.33 "Hg10 mi
1:15 PM58 °FSunny.5 mph38%30.33 "Hg10 mi
12:55 PM58 °FSunny.9 mph38%30.34 "Hg10 mi
12:35 PM58 °FSunny.6 mph38%30.35 "Hg10 mi
12:15 PM58 °FSunny.6 mph40%30.36 "Hg10 mi
11:55 AM56 °FSunny.6 mph43%30.37 "Hg10 mi
11:35 AM56 °FSunny.5 mph44%30.38 "Hg10 mi
11:15 AM55 °FSunny.5 mph46%30.38 "Hg10 mi
10:55 AM53 °FSunny.6 mph48%30.40 "Hg10 mi
10:35 AM51 °FSunny.6 mph51%30.41 "Hg10 mi
10:15 AM50 °FSunny.6 mph51%30.41 "Hg10 mi
9:55 AM49 °FSunny.5 mph53%30.41 "Hg10 mi
9:35 AM47 °FSunny.5 mph57%30.41 "Hg10 mi
9:15 AM46 °FSunny.6 mph58%30.40 "Hg10 mi
Weather by CustomWeather, © 2015

See weather overviewHow to use our weather pages